Regional Weather Roundup
Issued by NWS

Home | Current Version | Previous Version | Text Only | Print | Product List | Glossary On
Versions: 1 2 3 4 5 6 7 8 9 10 11 12 13 14 15 16 17 18 19 20 21 22 23 24 25 26 27 28 29 30 31 32 33 34 35 36 37 38 39 40 41 42 43 44 45 46 47 48 49 50
000
ASCA44 KEWX 220620
RWRMX

LATIN AMERICA AND CARIBBEAN REGIONAL WEATHER ROUNDUP
NATIONAL WEATHER SERVICE AUSTIN/SAN ANTONIO TX
100 AM CDT TUE AUG 22 2017

NOTE: "FAIR" INDICATED FEW OR NO CLOUDS BELOW 12,000 FEET WITH NO
SIGNIFICANT WEATHER AND/OR OBSTRUCTIONS TO VISIBILITY.

BAJA CALIFORNIA

CITY           SKY/WX    TMP DP  RH WIND       PRES   REMARKS
LA PAZ           N/A    N/A N/A N/A MISG        N/A
MEXICALI       CLEAR     86  61  42 SE6       29.84S
S.J. DEL CABO    N/A    N/A N/A N/A MISG        N/A
TIJUANA        CLEAR     64  61  88 CALM      30.02S

NORTHWESTERN MEXICO

CITY           SKY/WX    TMP DP  RH WIND       PRES   REMARKS
HERMOSILLO     CLEAR     88  73  62 W6        29.92S HX  96

NORTHEASTERN MEXICO

CITY           SKY/WX    TMP DP  RH WIND       PRES   REMARKS
MONCLOVA         N/A    N/A N/A N/A MISG        N/A
MONTERREY      MOCLDY    81  66  61 E8        30.08R
REYNOSA          N/A    N/A N/A N/A MISG        N/A
SALTILLO       CLEAR     68  54  60 CALM      30.27S
CD. VICTORIA     N/A    N/A N/A N/A MISG        N/A

WESTERN MEXICO

CITY           SKY/WX    TMP DP  RH WIND       PRES   REMARKS
AGUASCALIENTES   N/A    N/A N/A N/A MISG        N/A
COLIMA           N/A    N/A N/A N/A MISG        N/A
DEL BAJIO      CLEAR     64  50  59 E6        30.33S
GUADALAJARA    CLEAR     64  61  88 CALM      30.18S
MAZATLAN       MOCLDY    82  81  94 CALM      29.87F HX  95
P. VALLARTA    PTCLDY    84  81  89 CALM      29.89S HX  98
URUAPAN          N/A    N/A N/A N/A MISG        N/A
ZACATECAS      CLEAR     64  45  48 SE5       30.34R

CENTRAL MEXICO

CITY           SKY/WX    TMP DP  RH WIND       PRES   REMARKS
CUERNAVACA       N/A    N/A N/A N/A MISG        N/A
MEXICO CITY    MOCLDY    63  50  63 N6        30.40R
MORELIA        CLEAR     64  59  82 NE9       30.26R
POZA RICA        N/A    N/A N/A N/A MISG        N/A
QUERETARO      PTCLDY    61  55  82 E9        30.37R
S. LUIS POTOSI CLEAR     63  52  67 SE5       30.33S
TOLUCA         LGT RAIN  57  50  77 E10       30.44S

SOUTHERN MEXICO

CITY           SKY/WX    TMP DP  RH WIND       PRES   REMARKS
ACAPULCO       LGT RAIN  82  75  78 NE7       29.95R
B. DE HUATULCO   N/A    N/A N/A N/A MISG        N/A
P. ESCONDIDO     N/A    N/A N/A N/A MISG        N/A
VERACRUZ         N/A    N/A N/A N/A MISG        N/A

YUCATAN PENINSULA

CITY           SKY/WX    TMP DP  RH WIND       PRES   REMARKS
CAMPECHE         N/A    N/A N/A N/A MISG        N/A
CANCUN         TSTM      75  75 100 E10       29.97R
CHETUMAL         N/A    N/A N/A N/A MISG        N/A
CD. DEL CARMEN   N/A    N/A N/A N/A MISG        N/A
COZUMEL        CLOUDY    79  77  94 E10       29.92F
MERIDA         MOCLDY    77  73  88 NE8       29.95F
MINATITLAN       N/A    N/A N/A N/A MISG        N/A
TAPACHULA      MOCLDY    77  75  94 CALM      29.93S

CENTRAL AMERICA

CITY           SKY/WX    TMP DP  RH WIND       PRES   REMARKS
MANAGUA        PTCLDY    81  73  78 E7        29.89

CARIBBEAN

CITY           SKY/WX    TMP DP  RH WIND       PRES   REMARKS
KINGSTON       PTCLDY    84  77  79 E8        29.94S HX  94
NASSAU         MOCLDY    84  79  84 CALM      30.03S HX  96
SAN JUAN       PTCLDY    82  75  78 CALM      29.98F
SANTO DOMINGO  PTCLDY    77  75  94 NE6       29.97S
ST. CROIX      CLEAR     82  77  83 NE9       29.97  HX  91
ST. MAARTEN    PTCLDY    82  79  89 E12       29.94F HX  93
ST. THOMAS     PTCLDY    82  77  83 E7        29.97  HX  91

$$




USA.gov is the U.S. government's official web portal to all federal, state and local government web resources and services.